Tracking 31027 objects as of 19-Jul-2025
HD Live streaming from Space Station
objects crossing your sky now

STARLINK-4332

Track STARLINK-4332 now!
10-day predictions
STARLINK-4332 is classified as:


NORAD ID: 53190
Int'l Code: 2022-084B
Perigee: 568.0 km
Apogee: 572.3 km
Inclination: 97.7 °
Period: 95.9 minutes
Semi major axis: 6941 km
RCS: Unknown
Launch date: July 22, 2022
Source: United States (US)
Launch site: AIR FORCE WESTERN TEST RANGE (AFWTR)
Your satellite tracking list
ST5-A
Track 1 satellite(s)




NASA's NSSDC Master Catalog

Two Line Element Set (TLE):
1 53190U 22084B   25199.59795342  .00000359  00000-0  32569-4 0  9990
2 53190  97.6559 260.7487 0003047 131.8051 228.3434 15.01258800164577
Source of the keplerian elements: AFSPC